Tracking 29093 objects as of 15-Jul-2024
HD Live streaming from Space Station
objects crossing your sky now

OPS 1570

Track OPS 1570 now!
OPS 1570 is classified as:


NORAD ID: 5851
Int'l Code: 1972-010A
Perigee: 35,905.7 km
Apogee: 35,956.2 km
Inclination: 1.4 °
Period: 1,443.1 minutes
Semi major axis: 42301 km
RCS: Unknown
Launch date: March 1, 1972
Source: United States (US)
Launch site: AIR FORCE EASTERN TEST RANGE (AFETR)
Your satellite tracking list
Your tracking list is empty




NASA's NSSDC Master Catalog

Two Line Element Set (TLE):
1  5851U 72010A   24196.84543378 -.00000178  00000-0  00000+0 0  9999
2  5851   1.4377 270.8710 0005963 348.9317 321.1610  0.99784256 18919
Source of the keplerian elements: McCants